Overview Statistics Trail Chart Weather Telemetry Raw packets
 

This is the latest recevied weather packets stored in our database for station/object 4S6DRJ-13. If no packets are shown the sender has not sent any weather packets the latest 10 day(s).

<< 13 14 15 16 17 18 19 >>
Time Temp. Humidity Pressure Rain* Wind** Luminosity Snow
1788423819 31.67° C 69% 1007.8 hPa 0 mm 2.24 m/s, 22° 1111 W/m² -
1788423758 31.67° C 69% 1008.1 hPa 0 mm 3.13 m/s, 118° 571 W/m² -
1788423697 31.67° C 69% 1008.1 hPa 0 mm 3.13 m/s, 180° 819 W/m² -
1788423636 31.67° C 69% 1008.1 hPa 0 mm 4.02 m/s, 256° 1124 W/m² -
1788423576 31.67° C 70% 1007.9 hPa 0 mm 1.79 m/s, 334° 1121 W/m² -
1788423453 31.11° C 71% 1008.1 hPa 0 mm 1.79 m/s, 186° 818 W/m² -
1788423392 31.11° C 70% 1008 hPa 0 mm 3.58 m/s, 230° 1119 W/m² -
1788423331 31.11° C 70% 1008 hPa 0 mm 2.24 m/s, 231° 1119 W/m² -
1788423270 31.11° C 70% 1008 hPa 0 mm 2.68 m/s, 156° 472 W/m² -
1788423209 31.67° C 69% 1008 hPa 0 mm 3.13 m/s, 195° 1123 W/m² -
1788423148 31.67° C 70% 1007.9 hPa 0 mm 2.68 m/s, 324° 400 W/m² -
1788423087 31.67° C 70% 1008.1 hPa 0 mm 1.79 m/s, 25° 1121 W/m² -
1788423026 31.11° C 70% 1008 hPa 0 mm 2.68 m/s, 273° 1124 W/m² -
1788422965 31.11° C 70% 1008 hPa 0 mm 1.34 m/s, 19° 1118 W/m² -
1788422904 31.11° C 69% 1008 hPa 0 mm 1.79 m/s, 154° 309 W/m² -
1788422844 31.11° C 69% 1008.1 hPa 0 mm 1.79 m/s, 349° 518 W/m² -
1788422782 31.11° C 69% 1008 hPa 0 mm 1.79 m/s, 142° 356 W/m² -
1788422721 31.11° C 70% 1008 hPa 0 mm 1.34 m/s, 276° 1120 W/m² -
1788422660 31.11° C 70% 1008 hPa 0 mm 0.89 m/s, 7° 1121 W/m² -
1788422599 31.11° C 69% 1008.1 hPa 0 mm 1.79 m/s, 306° 1121 W/m² -
1788422538 31.11° C 69% 1008.1 hPa 0 mm 4.02 m/s, 297° 1109 W/m² -
1788422478 31.11° C 68% 1008.2 hPa 0 mm 2.68 m/s, 279° 1123 W/m² -
1788422416 31.11° C 69% 1008.1 hPa 0 mm 3.13 m/s, 298° 1121 W/m² -
1788422355 31.11° C 70% 1008 hPa 0 mm 3.13 m/s, 229° 1121 W/m² -
1788422294 31.11° C 70% 1008.2 hPa 0 mm 2.24 m/s, 290° 1124 W/m² -

* Rain latest hour (hover to see other rain measurements)
** Current wind speed in m/s (hover to see current wind gust speed)